Regional Weather Roundup
Issued by NWS Newport/Morehead, NC

Current Version | Previous Version | Graphics & Text | Print | Product List | Glossary Off
Versions: 1 2 3 4 5 6 7 8 9 10 11 12 13 14 15 16 17 18 19 20 21 22 23 24 25 26 27 28 29 30 31 32 33 34 35 36 37 38 39 40 41 42 43 44 45 46 47 48 49 50

000
ASUS42 KMHX 302125
RWRMHX
WEATHER ROUNDUP FOR EASTERN NORTH CAROLINA
NATIONAL WEATHER SERVICE NEWPORT/MOREHEAD CITY NC
500 PM EDT SAT JUL 30 2016

NOTE: "FAIR" INDICATES FEW OR NO CLOUDS BELOW 12,000 FEET
WITH NO SIGNIFICANT WEATHER AND/OR OBSTRUCTIONS TO VISIBILITY

NCZ015>017-031-032-045>047-102-103-302200-
NORTH COAST

CITY           SKY/WX    TMP DP  RH WIND       PRES   REMARKS
EDENTON        CLOUDY   N/A N/A N/A SE8       29.97R
ELIZABETH CITY TSTM      77  75  93 E7        29.99F FOG
KITTY HAWK     LGT RAIN  80  79  96 S3        29.98F
MANTEO         CLOUDY    80  79  97 W16       30.01R

$$

NCZ045>047-081-094-103-104-302200-
CENTRAL COAST

CITY           SKY/WX    TMP DP  RH WIND       PRES   REMARKS
FRISCO         CLOUDY    85  80  85 S5        29.99R

$$

NCZ095-097-098-100-101-302200-
SOUTHERN COAST

CITY           SKY/WX    TMP DP  RH WIND       PRES   REMARKS
BEAUFORT       CLOUDY    86  79  79 MISG      29.98R
CEDAR ISLAND   NOT AVBL
JACKSONVILLE   CLOUDY    92  77  61 S9        29.93S HX 105
PINEY ISLAND   NOT AVBL
WILMINGTON     MOSUNNY   93  75  55 SW8       29.94S HX 104


$$

NCZ011>013-027>030-043-044-078>080-089-090>093-098-302200-
COASTAL PLAIN

CITY           SKY/WX    TMP DP  RH WIND       PRES   REMARKS
AHOSKIE        HVY RAIN  75  74  97 N6        29.98R
CLINTON        SUNNY     97  71  42 W9        29.93R HX 105
ELIZABETHTOWN  SUNNY     98  67  36 SW12G17   29.93R HX 102
GOLDSBORO      MOSUNNY   97  69  40 VRB7      29.90R HX 102
GREENVILLE     CLOUDY    81  77  89 SE5       29.96S
HAVELOCK       CLOUDY    80  73  79 SE5       29.97R
KENANSVILLE    NOT AVBL
KINSTON        CLOUDY    86  73  66 E9        29.94R
NEW BERN       CLOUDY    77  73  87 SE7       29.96R
RICHLANDS      CLOUDY    89  79  72 SE6       29.94R HX 104
ROCKY MOUNT    MOSUNNY   95  73  48 SW7       29.92S HX 104
WASHINGTON     LGT RAIN  75  74  96 E6        29.94F
WHITEVILLE     SUNNY     96  72  45 S14G20    29.94R HX 104

$$

AMZ130-135-150-152-154-156-158-170-250-252-270-ANZ085-086-088-633-658-670-302200-
MARINE OBSERVATIONS

STATION/POSITION TIME  TEMP    WIND        PRES    WAVE   SWELL
                       AIR SEA DIR/SP/G            HT/PER HT/PER
                 (UTC) (F)     (DEG/KT/KT) (MB)    (FT/S) (FT/S)
CHESAPEAKE LIGHT NOT AVBL
64 E VA BEACH    2050   82 83  160/ 10/ 10 1015.4    3/ 6   2/ 6
DUCK             2100   81 79  140/  9/ 11 1014.9
2 E DUCK         2011      82                N/A     2/ 6
OREGON INLET     2100   80 80  140/  7/ 11 1015.3
13E OREGON INLT  2100      81                N/A     3/ 7   2/ 7
HATTERAS CG      2100   85 83  170/  7/  9 1015.2
DIAMOND BUOY     2050   85 85  180/ 14/ 16 1015.4    2/ 6   2/ 6
CAPE LOOKOUT     2100   86     190/  7/ 10 1015.0
BEAUFORT LAB     2100   85 83  170/  6/  7 1014.4
30 SE NEW RVR IN 2108   86 85  200/ 12/ 17 1014.6
30 SE NEW RVR IN 2025      85                N/A     3/ 6
27 SE WRIGHTSVLE 2108   87 85  200/ 12/ 17 1014.5
5 SE WRIGHTSVLE  2108   84 81  210/ 12/ 16 1014.9
225 S CAPE HAT   2050   85 86  200/  6/  8 1017.3    3/ 6   2/ 6
41 SE CHARLESTON 2050   86 87  200/ 12/ 16 1014.5    2/ 5   2/ 8

$$



USA.gov is the U.S. government's official web portal to all federal, state and local government web resources and services.